Location: Aurora Center
(43.5271°N, 98.5894°W)
Time: 01:36:35
(UTC-05:00)

BlueWalker 3 - Pass Details

Date: 20 June 2024
Orbit: 480 x 492 km, 53.2° (Epoch: 15 July)

Event Time Altitude Azimuth Distance (km) Brightness Sun altitude
Rises 03:32:40 0° 307° (NW) 2,539 5.6 -17.9°
Reaches altitude 10° 03:34:57 10° 316° (NW) 1,658 4.8 -17.7°
Maximum altitude 03:38:27 37° 26° (NNE) 758 3.4 -17.4°
Drops below altitude 10° 03:41:57 10° 95° (E) 1,654 4.9 -17.1°
Sets 03:44:13 0° 104° (ESE) 2,533 5.7 -16.9°
